Time,TemperatureF,DewpointF,PressureIn,WindDirection,WindDirectionDegrees,WindSpeedMPH,WindSpeedGustMPH,Humidity,HourlyPrecipIn,Conditions,Clouds,dailyrainin,SoftwareType,DateUTC
2013-03-21 00:36:00,24.4,12.5,29.65,West,275,1.0,1.0,60,0.00,,,0.15,Wunderground v.1.15,2013-03-21 04:36:00,
2013-03-21 00:46:00,24.2,12.3,29.65,West,273,3.0,3.0,60,0.00,,,0.15,Wunderground v.1.15,2013-03-21 04:46:00,
2013-03-21 00:56:00,24.1,12.6,29.65,West,281,3.0,3.0,61,0.00,,,0.15,Wunderground v.1.15,2013-03-21 04:56:00,
2013-03-21 01:05:00,23.5,12.4,29.65,West,281,1.0,9.0,62,0.00,,,0.00,Wunderground v.1.15,2013-03-21 05:05:00,
2013-03-21 01:15:00,23.0,11.9,29.65,NW,317,0.0,9.0,62,0.00,,,0.00,Wunderground v.1.15,2013-03-21 05:15:00,
2013-03-21 01:26:00,23.9,12.0,29.65,WNW,302,3.0,3.0,60,0.00,,,0.00,Wunderground v.1.15,2013-03-21 05:26:00,
2013-03-21 02:06:00,22.7,11.6,29.66,WNW,296,1.0,1.0,62,0.00,,,0.00,Wunderground v.1.15,2013-03-21 06:06:00,
2013-03-21 02:16:00,22.5,11.8,29.66,WNW,296,1.0,1.0,63,0.00,,,0.00,Wunderground v.1.15,2013-03-21 06:16:00,
2013-03-21 02:26:00,22.5,11.8,29.66,WNW,296,0.0,10.0,63,0.00,,,0.00,Wunderground v.1.15,2013-03-21 06:26:00,
2013-03-21 03:06:00,23.2,12.8,29.66,SSE,157,1.0,6.0,64,0.00,,,0.00,Wunderground v.1.15,2013-03-21 07:06:00,
2013-03-21 03:26:00,22.5,12.8,29.66,SSE,157,2.0,2.0,66,0.00,,,0.00,Wunderground v.1.15,2013-03-21 07:26:00,
2013-03-21 04:05:00,22.9,11.8,29.65,East,82,1.0,6.0,62,0.00,,,0.00,Wunderground v.1.15,2013-03-21 08:05:00,
2013-03-21 04:15:00,22.9,11.4,29.65,West,264,1.0,6.0,61,0.00,,,0.00,Wunderground v.1.15,2013-03-21 08:15:00,
2013-03-21 04:35:00,22.9,11.4,29.65,West,262,3.0,12.0,61,0.00,,,0.00,Wunderground v.1.15,2013-03-21 08:35:00,
2013-03-21 04:46:00,22.7,11.3,29.66,WSW,253,3.0,3.0,61,0.00,,,0.00,Wunderground v.1.15,2013-03-21 08:46:00,
2013-03-21 04:56:00,22.5,11.1,29.66,NNW,344,2.0,2.0,61,0.00,,,0.00,Wunderground v.1.15,2013-03-21 08:56:00,
2013-03-21 05:25:00,21.9,10.9,29.66,NNW,344,0.0,11.0,62,0.00,,,0.00,Wunderground v.1.15,2013-03-21 09:25:00,
2013-03-21 06:36:00,20.3,10.7,29.67,WNW,282,3.0,7.0,66,0.00,,,0.00,Wunderground v.1.15,2013-03-21 10:36:00,
2013-03-21 06:46:00,21.4,11.1,29.67,West,266,4.0,4.0,64,0.00,,,0.00,Wunderground v.1.15,2013-03-21 10:46:00,
2013-03-21 06:56:00,21.1,11.2,29.67,West,275,2.0,7.0,65,0.00,,,0.00,Wunderground v.1.15,2013-03-21 10:56:00,
2013-03-21 07:06:00,20.8,10.9,29.67,West,275,3.0,12.0,65,0.00,,,0.00,Wunderground v.1.15,2013-03-21 11:06:00,
2013-03-21 07:16:00,21.3,11.4,29.68,WNW,284,3.0,3.0,65,0.00,,,0.00,Wunderground v.1.15,2013-03-21 11:16:00,
2013-03-21 07:35:00,19.5,11.0,29.69,WNW,284,0.0,5.0,69,0.00,,,0.00,Wunderground v.1.15,2013-03-21 11:35:00,
2013-03-21 07:46:00,20.8,11.6,29.68,WNW,284,0.0,5.0,67,0.00,,,0.00,Wunderground v.1.15,2013-03-21 11:46:00,
2013-03-21 07:56:00,21.8,11.8,29.68,WNW,284,1.0,5.0,65,0.00,,,0.00,Wunderground v.1.15,2013-03-21 11:56:00,
2013-03-21 08:45:00,23.9,13.5,29.68,WNW,284,0.0,4.0,64,0.00,,,0.00,Wunderground v.1.15,2013-03-21 12:45:00,
2013-03-21 08:56:00,23.8,13.4,29.68,SE,134,2.0,2.0,64,0.00,,,0.00,Wunderground v.1.15,2013-03-21 12:56:00,
2013-03-21 09:36:00,26.4,12.8,29.68,WSW,246,1.0,5.0,56,0.00,,,0.00,Wunderground v.1.15,2013-03-21 13:36:00,
2013-03-21 09:46:00,26.4,12.8,29.67,West,280,3.0,5.0,56,0.00,,,0.00,Wunderground v.1.15,2013-03-21 13:46:00,
2013-03-21 09:56:00,26.7,12.3,29.67,West,275,3.0,5.0,54,0.00,,,0.00,Wunderground v.1.15,2013-03-21 13:56:00,
2013-03-21 10:36:00,29.1,9.4,29.66,SW,229,5.0,5.0,43,0.00,,,0.01,Wunderground v.1.15,2013-03-21 14:36:00,
2013-03-21 10:46:00,30.0,9.6,29.66,West,273,5.0,12.0,42,0.00,,,0.01,Wunderground v.1.15,2013-03-21 14:46:00,
2013-03-21 10:56:00,29.3,7.9,29.66,West,279,4.0,4.0,40,0.00,,,0.01,Wunderground v.1.15,2013-03-21 14:56:00,
2013-03-21 11:05:00,29.1,8.8,29.66,WNW,288,4.0,4.0,42,0.00,,,0.01,Wunderground v.1.15,2013-03-21 15:05:00,
2013-03-21 11:16:00,30.7,10.8,29.64,West,281,1.0,11.0,43,0.00,,,0.01,Wunderground v.1.15,2013-03-21 15:16:00,
2013-03-21 11:26:00,32.1,9.9,29.64,North,355,2.0,11.0,39,0.00,,,0.02,Wunderground v.1.15,2013-03-21 15:26:00,
2013-03-21 11:45:00,32.4,9.6,29.63,WSW,249,3.0,9.0,38,0.00,,,0.02,Wunderground v.1.15,2013-03-21 15:45:00,
2013-03-21 12:06:00,32.4,8.4,29.62,West,268,4.0,4.0,36,0.00,,,0.03,Wunderground v.1.15,2013-03-21 16:06:00,
2013-03-21 12:25:00,32.5,7.8,29.61,WSW,243,3.0,3.0,35,0.00,,,0.04,Wunderground v.1.15,2013-03-21 16:25:00,
2013-03-21 13:25:00,35.5,10.5,29.60,ENE,64,2.0,9.0,35,0.00,,,0.06,Wunderground v.1.15,2013-03-21 17:25:00,
2013-03-21 13:36:00,35.3,10.3,29.59,East,90,2.0,10.0,35,0.00,,,0.06,Wunderground v.1.15,2013-03-21 17:36:00,
2013-03-21 14:26:00,36.0,5.2,29.57,WNW,301,4.0,4.0,27,0.00,,,0.07,Wunderground v.1.15,2013-03-21 18:26:00,
2013-03-21 15:25:00,38.0,6.9,29.55,West,268,1.0,7.0,27,0.00,,,0.08,Wunderground v.1.15,2013-03-21 19:25:00,
2013-03-21 16:06:00,35.5,8.5,29.53,SSE,166,3.0,11.0,32,0.00,,,0.08,Wunderground v.1.15,2013-03-21 20:06:00,
2013-03-21 16:16:00,35.6,7.9,29.53,ESE,121,2.0,11.0,31,0.00,,,0.08,Wunderground v.1.15,2013-03-21 20:16:00,
2013-03-21 16:26:00,35.8,5.8,29.53,South,190,3.0,3.0,28,0.00,,,0.08,Wunderground v.1.15,2013-03-21 20:26:00,
2013-03-21 17:06:00,35.9,8.2,29.52,SE,134,2.0,2.0,31,0.00,,,0.08,Wunderground v.1.15,2013-03-21 21:06:00,
2013-03-21 17:16:00,35.8,7.3,29.53,South,184,2.0,9.0,30,0.00,,,0.08,Wunderground v.1.15,2013-03-21 21:16:00,
2013-03-21 17:26:00,35.5,7.1,29.53,SSE,156,2.0,2.0,30,0.00,,,0.08,Wunderground v.1.15,2013-03-21 21:26:00,
2013-03-21 17:55:00,35.5,7.1,29.53,South,186,1.0,1.0,30,0.00,,,0.08,Wunderground v.1.15,2013-03-21 21:55:00,
2013-03-21 18:35:00,33.8,7.0,29.54,West,261,0.0,10.0,32,0.00,,,0.08,Wunderground v.1.15,2013-03-21 22:35:00,
2013-03-21 18:46:00,33.2,6.5,29.55,West,261,0.0,10.0,32,0.00,,,0.08,Wunderground v.1.15,2013-03-21 22:46:00,
2013-03-21 18:56:00,32.7,6.7,29.55,West,261,0.0,10.0,33,0.00,,,0.08,Wunderground v.1.15,2013-03-21 22:56:00,
2013-03-21 19:06:00,32.5,7.2,29.55,West,261,1.0,1.0,34,0.00,,,0.08,Wunderground v.1.15,2013-03-21 23:06:00,
2013-03-21 19:26:00,32.1,7.5,29.55,WSW,257,0.0,3.0,35,0.00,,,0.08,Wunderground v.1.15,2013-03-21 23:26:00,
2013-03-21 20:06:00,30.0,9.1,29.56,WSW,258,1.0,1.0,41,0.00,,,0.08,Wunderground v.1.15,2013-03-22 00:06:00,
2013-03-21 20:16:00,30.1,9.2,29.56,East,81,1.0,2.0,41,0.00,,,0.08,Wunderground v.1.15,2013-03-22 00:16:00,
2013-03-21 20:26:00,29.8,10.0,29.56,East,81,1.0,2.0,43,0.00,,,0.08,Wunderground v.1.15,2013-03-22 00:26:00,
2013-03-21 21:25:00,30.0,10.7,29.56,NE,38,1.0,4.0,44,0.00,,,0.08,Wunderground v.1.15,2013-03-22 01:25:00,
2013-03-21 21:56:00,29.3,10.6,29.56,NNW,343,1.0,5.0,45,0.00,,,0.08,Wunderground v.1.15,2013-03-22 01:56:00,
2013-03-21 22:05:00,29.1,11.4,29.56,NNE,27,1.0,1.0,47,0.00,,,0.08,Wunderground v.1.15,2013-03-22 02:05:00,
2013-03-21 22:16:00,28.8,11.6,29.56,ENE,75,0.0,5.0,48,0.00,,,0.08,Wunderground v.1.15,2013-03-22 02:16:00,
2013-03-21 22:26:00,28.7,12.8,29.56,NNW,329,1.0,5.0,51,0.00,,,0.08,Wunderground v.1.15,2013-03-22 02:26:00,
2013-03-21 23:06:00,28.1,13.1,29.56,North,360,3.0,11.0,53,0.00,,,0.08,Wunderground v.1.15,2013-03-22 03:06:00,